Hourly Data Report for October 01, 2016

All times are specified in Local Standard Time (LST). Add 1 hour to adjust for Daylight Saving Time where and when it is observed.

GJOA HAVEN A
NUNAVUT

68°38'08.000" N
95°51'01.000" W
46.90 m
2302337
71597
YHK

Download Data

Hourly Data (October 2016)
Hourly Data Report for October 1, 2016
Temp Definition
°C
Dew Point Temp Definition
°C
Rel Hum Definition
%
Wind Dir Definition
10's deg

Wind Spd Definition
km/h
Visibility Definition
km
Stn Press Definition
kPa
Hmdx Definition


Wind Chill Definition


Weather Definition


TIME
00:00 Legend Double Dagger 0.2 -0.1 98 34 9 16.1 101.59     LegendNANA
01:00 Legend Double Dagger 0.4 -0.2 96 35 13 16.1 101.64     LegendNANA
02:00 Legend Double Dagger 0.3 -0.6 94 33 8 16.1 101.68     LegendNANA
03:00 Legend Double Dagger -0.1 -0.5 97 31 8 16.1 101.70   -3 LegendNANA
04:00 Legend Double Dagger -0.7 -0.8 99 30 9 16.1 101.71   -4 LegendNANA
05:00 Legend Double Dagger -1.0 -1.0 100 33 5 16.1 101.73   -3 LegendNANA
06:00 Legend Double Dagger -1.9 -1.9 100 36 5 0.2 101.75   -4 Freezing Fog
07:00 Legend Double Dagger -1.2 -1.2 100 23 8 8.1 101.75   -4 Snow
08:00 Legend Double Dagger -1.5 -1.5 100 30 11 0.2 101.77   -5 Freezing Fog
09:00 Legend Double Dagger -1.5 -1.5 100 31 13 0.6 101.79   -6 Freezing Fog
10:00 Legend Double Dagger -0.2 -1.3 92 34 13 16.1 101.79   -4 LegendNANA
11:00 Legend Double Dagger -0.8 -1.8 93 34 17 16.1 101.83   -6 LegendNANA
12:00 Legend Double Dagger -0.4 -1.7 91 1 24 16.1 101.84   -6 LegendNANA
13:00 Legend Double Dagger 0.0 -1.8 88 1 26 16.1 101.88   -6 LegendNANA
14:00 Legend Double Dagger -0.4 -2.3 87 36 22 16.1 101.93   -6 LegendNANA
15:00 Legend Double Dagger -0.4 -3.8 78 36 18 16.1 101.96   -5 LegendNANA
16:00 Legend Double Dagger -0.9 -3.5 83 36 18 16.1 101.97   -6 LegendNANA
17:00 Legend Double Dagger -1.5 -2.6 92 35 21 16.1 102.01   -7 LegendNANA
18:00 Legend Double Dagger -1.8 -2.6 95 35 22 16.1 102.03   -8 LegendNANA
19:00 Legend Double Dagger -1.8 -2.6 94 35 30 16.1 102.05   -9 LegendNANA
20:00 Legend Double Dagger -1.8 -2.5 95 34 28 16.1 102.05   -9 LegendNANA
21:00 Legend Double Dagger -1.9 -2.3 97 35 24 4.8 102.08   -8 Snow
22:00 Legend Double Dagger -2.3 -2.9 96 34 30 16.1 102.10   -9 Snow
23:00 Legend Double Dagger -2.4 -3.2 94 34 26 16.1 102.15   -9 LegendNANA

Notes on Data Quality.

Legend

  • E = Estimated
  • M = Missing
  • NA = Not Available
  • ‡ = Partner data that is not subject to review by the National Climate Archives
Date modified: